Location: Boiro
(42.6475°N, 8.8834°W)
Time: 17:26:19
(UTC+01:00)

Tiros 1 - Pass Details

Date: 07 December 2021
Orbit: 630 x 663 km, 48.4° (Epoch: 20 January)

Event Time Altitude Azimuth Distance (km) Brightness Sun altitude
Rises 22:43:46 0° 292° (WNW) 2,937 - -50.8°
Reaches altitude 10° 22:46:09 10° 298° (WNW) 2,032 - -51.2°
Maximum altitude 22:50:43 50° 15° (NNE) 819 - -52.0°
Drops below altitude 10° 22:55:19 10° 91° (E) 2,051 - -52.8°
Sets 22:57:44 0° 96° (E) 2,966 - -53.2°
